Avalon School, Santa Catalina Island Weather observations

Data are for 10 minute period ending at time listed.
 Day   Time   Solar   Ave.   Ave.  Ave.  Vector    Max.   Stn.    Total
  of    of     Rad.   Air    Rel.  Wind   Wind     Wind   Baro.  Precip.
Year   Day            Temp.  Hum.  Speed  Dir.     Gust   Pres.         
2015   (PST)   W/m2    F      %     mph   deg.      mph    mb.     in.  
------------------------------------------------------------------------
 243   10:30  585.0    72   77.7     5     90.4    10.2    999.0   0.00  
 243   10:40  818.0    72   77.5     6     97.1     9.6    999.0   0.00  
 243   10:50  746.0    73   76.6     6     98.7    10.2    999.0   0.00  
 243   11:00  722.0    73   76.2     7     91.7    11.9    999.0   0.00  
 243   11:10  722.0    73   75.6     6     82.8    10.8    999.0   0.00  
 243   11:20  730.0    74   74.3     6    101.6    10.8    999.0   0.00  
 243   11:30  735.0    74   74.8     6     97.2    11.9    999.0   0.00  
 243   11:40  739.0    74   74.9     6     85.2    10.2    999.0   0.00  
 243   11:50  742.0    74   74.3     6     88.5    10.8    999.0   0.00  
 243   12:00  742.0    75   72.1     6     92.0    10.8    999.0   0.00  
 243   12:10  742.0    76   71.4     5    101.2    10.2    999.0   0.00  
 243   12:20  734.0    77   70.0     3     55.7     6.6    999.0   0.00  
 243   12:30  722.0    78   69.4     5     84.1    11.3    999.0   0.00  
 243   12:40  720.0    76   71.3     5    106.4    10.2    999.0   0.00  
 243   12:50  713.0    77   69.9     5     91.6    11.3    999.0   0.00  
 243   13:00  706.0    76   70.7     4     99.4    10.8    999.0   0.00  
 243   13:10  695.0    77   69.6     4     15.7     9.0    999.0   0.00  
 243   13:20  680.0    77   70.5     4     94.3    10.2    999.0   0.00  
 243   13:30  671.0    77   70.6     3     86.2     7.2    999.0   0.00  
 243   13:40  656.0    77   69.8     4     19.6     9.0    999.0   0.00  
 243   13:50  643.0    77   70.3     4    100.8     7.8    999.0   0.00  
 243   14:00  627.0    76   70.7     5     95.9     8.4    999.0   0.00  
 243   14:10  611.0    76   71.5     4    109.4     9.0    999.0   0.00  
 243   14:20  593.0    77   70.6     4    101.9     8.4    999.0   0.00  
 243   14:30  574.0    77   70.7     3     68.1     7.8    999.0   0.00  
 243   14:40  554.0    77   70.6     4     95.9     9.6    999.0   0.00  
 243   14:50  535.0    75   74.0     5     94.6     9.6    999.0   0.00  
 243   15:00  513.0    75   74.4     5    117.4     9.0    999.0   0.00  
 243   15:10  490.0    75   75.1     4    110.9     8.4    999.0   0.00  
 243   15:20  463.0    74   76.4     5    100.5    10.2    999.0   0.00  
 243   15:30  437.0    74   77.1     5    107.6     8.4    999.0   0.00  
 243   15:40  413.0    74   77.5     5     94.8     9.0    999.0   0.00  
 243   15:50  386.0    74   77.3     5    107.0    12.5    999.0   0.00  
 243   16:00  355.0    74   78.6     4    128.7     8.4    999.0   0.00  
 243   16:10  259.0    75   77.2     3    103.9     5.4    999.0   0.00  
 243   16:20  228.0    74   78.5     3    238.0     5.4    999.0   0.00  
 243   16:30  252.0    74   78.2     3    139.1     7.8    999.0   0.00  
 243   16:40  217.0    74   78.8     3    137.0     6.6    999.0   0.00  
 243   16:50  204.0    74   78.3     3    324.8     5.4    999.0   0.00  
 243   17:00  167.0    73   79.4     3    220.9     6.0    999.0   0.00  
 243   17:10   67.0    72   82.1     4    115.7     7.2    999.0   0.00  
 243   17:20   71.0    72   82.8     4    114.5     8.4    999.0   0.00  
 243   17:30   60.0    71   83.4     3    118.6     6.0    999.0   0.00  
 243   17:40   46.0    71   83.7     3    112.5     6.0    999.0   0.00  
 243   17:50   26.0    71   84.1     2     91.7     5.4    999.0   0.00  
 243   18:00   15.0    71   84.5     3    129.9     4.8    999.0   0.00  
 243   18:10    7.0    71   84.6     2    106.7     5.4    999.0   0.00  
 243   18:20    2.0    71   84.2     2    110.8     4.8    999.0   0.00  
 243   18:30    1.0    70   84.3     1    137.8     3.6    999.0   0.00  
 243   18:40    0.0    70   84.7     2     91.3     4.2    999.0   0.00  
 243   18:50    0.0    70   84.5     4     88.9     7.2    999.0   0.00  
 243   19:00    0.0    70   85.0     2     93.2     4.8    999.0   0.00  
 243   19:10    0.0    70   85.1     2    127.2     4.2    999.0   0.00  
 243   19:20    0.0    70   85.0     3    105.6     5.4    999.0   0.00  
 243   19:30    0.0    70   84.7     3    107.9     5.4    999.0   0.00  
 243   19:40    0.0    70   84.7     2     97.7     5.4    999.0   0.00  
 243   19:50    0.0    70   84.5     3    108.2     6.0    999.0   0.00  
 243   20:00    0.0    70   84.5     2    106.7     4.2    999.0   0.00  
 243   20:10    0.0    70   84.4     3     89.6     5.4    999.0   0.00  
 243   20:20    0.0    70   84.6     3    121.8     4.8    999.0   0.00  
 243   20:30    0.0    70   84.7     3    102.1     4.8    999.0   0.00  
 243   20:40    0.0    70   84.7     3    100.8     5.4    999.0   0.00  
 243   20:50    0.0    70   84.2     3    114.1     4.8    999.0   0.00  
 243   21:00    0.0    70   83.3     3    102.7     4.8    999.0   0.00  
 243   21:10    0.0    71   83.2     3    115.0     4.8    999.0   0.00  
 243   21:20    0.0    70   83.6     2     91.0     4.2    999.0   0.00  
 243   21:30    0.0    71   83.2     2     92.5     3.6    999.0   0.00  
 243   21:40    0.0    71   83.2     1     91.2     4.2    999.0   0.00  
 243   21:50    0.0    71   83.0     1     54.0     3.6    999.0   0.00  
 243   22:00    0.0    71   82.6     1     88.2     2.4    999.0   0.00  
 243   22:10    0.0    70   82.1     0    139.5     2.4    999.0   0.00  
 243   22:20    0.0    71   82.2     1    116.4     3.0    999.0   0.00  
 243   22:30    0.0    71   81.9     0    125.1     3.0    999.0   0.00  
 243   22:40    0.0    71   81.7     1    108.8     3.6    999.0   0.00  
 243   22:50    0.0    71   81.2     2    109.6     5.4    999.0   0.00  
 243   23:00    0.0    71   80.9     3    104.4     5.4    999.0   0.00  
 243   23:10    0.0    71   81.0     2     94.4     5.4    999.0   0.00  
 243   23:20    0.0    70   81.2     2    250.7     3.0    999.0   0.00  
 243   23:30    0.0    70   81.5     1    289.7     1.8    999.0   0.00  
 243   23:40    0.0    70   81.4     0     97.5     1.8    999.0   0.00  
 243   23:50    0.0    71   81.0     2    104.1     4.2    999.0   0.00  
 244    0:00    0.0    71   80.7     2    284.7     4.2    999.0   0.00  
 244    0:10    0.0    71   80.3     2    272.1     4.2    999.0   0.00  
 244    0:20    0.0    71   80.1     1    274.2     2.4    999.0   0.00  
 244    0:30    0.0    71   80.1     1    273.2     2.4    999.0   0.00  
 244    0:40    0.0    70   80.3     0    212.5     1.8    999.0   0.00  
 244    0:50    0.0    70   80.3     0    120.0     2.4    999.0   0.00  
 244    1:00    0.0    71   80.2     1    205.4     2.4    999.0   0.00  
 244    1:10    0.0    70   80.7     2    109.5     4.8    999.0   0.00  
 244    1:20    0.0    70   81.6     1    302.0     4.8    999.0   0.00  
 244    1:30    0.0    70   82.3     1    172.1     3.0    999.0   0.00  
 244    1:40    0.0    70   82.4     1    215.5     3.0    999.0   0.00  
 244    1:50    0.0    70   82.1     1    190.5     2.4    999.0   0.00  
 244    2:00    0.0    70   82.1     2    149.6     3.6    999.0   0.00  
 244    2:10    0.0    70   82.5     1    160.8     3.6    999.0   0.00  
 244    2:20    0.0    70   82.1     0    266.0     1.8    999.0   0.00  
 244    2:30    0.0    70   82.2     2    221.2     4.2    999.0   0.00  
 244    2:40    0.0    70   83.3     1    225.9     4.2    999.0   0.00  
 244    2:50    0.0    70   83.6     0    258.2     3.0    999.0   0.00  
 244    3:00    0.0    70   83.1     1    260.5     3.6    999.0   0.00  
 244    3:10    0.0    70   81.6     0    331.6     1.2    999.0   0.00  
 244    3:20    0.0    70   81.0     1    138.7     3.6    999.0   0.00  
 244    3:30    0.0    70   82.4     2    194.0     4.8    999.0   0.00  
 244    3:40    0.0    70   83.9     3    241.3     4.8    999.0   0.00  
 244    3:50    0.0    69   84.5     1    257.0     3.0    999.0   0.00  
 244    4:00    0.0    69   84.2     0    230.6     2.4    999.0   0.00  
 244    4:10    0.0    69   84.0     1    224.7     3.6    999.0   0.00  
 244    4:20    0.0    69   84.0     0    211.8     3.0    999.0   0.00  
 244    4:30    0.0    69   83.8     1    224.8     4.2    999.0   0.00  
 244    4:40    0.0    69   83.8     2    248.6     7.2    999.0   0.00  
 244    4:50    0.0    69   84.5     4    242.3     7.2    999.0   0.00  
 244    5:00    0.0    69   85.7     2    226.4     6.6    999.0   0.00  
 244    5:10    0.0    69   86.1     2    224.8     5.4    999.0   0.00  
 244    5:20    0.0    68   86.7     2     24.9     5.4    999.0   0.00  
 244    5:30    1.0    68   86.2     3    263.0     7.2    999.0   0.00  
 244    5:40    2.0    68   85.3     3    322.7     7.2    999.0   0.00  
 244    5:50    4.0    68   86.6     4    298.1     7.2    999.0   0.00  
 244    6:00    9.0    68   87.4     4    298.5     6.6    999.0   0.00  
 244    6:10   14.0    68   87.8     2    308.1     4.2    999.0   0.00  
 244    6:20   21.0    68   87.7     3    317.5     7.2    999.0   0.00  
 244    6:30   28.0    68   87.4     3    264.7     6.6    999.0   0.00  
 244    6:40   43.0    68   86.6     3    257.4     7.2    999.0   0.00  
 244    6:50   56.0    68   86.0     3    149.4     6.0    999.0   0.00  
 244    7:00   64.0    68   86.5     3     29.5     6.6    999.0   0.00  
 244    7:10   86.0    68   86.4     3    320.3     6.6    999.0   0.00  
 244    7:20   94.0    69   85.9     3    167.1     6.6    999.0   0.00  
 244    7:30   87.0    69   86.3     3    176.5     6.0    999.0   0.00  
 244    7:40   93.0    69   85.4     3    190.3     6.6    999.0   0.00  
 244    7:50  137.0    69   84.6     4    197.2     7.2    999.0   0.00  
 244    8:00  132.0    69   84.2     3    222.1     7.2    999.0   0.00  
 244    8:10  180.0    69   84.6     4     68.6     9.0    999.0   0.00  
 244    8:20  261.0    70   83.3     3      6.0     7.2    999.0   0.00  
 244    8:30  519.0    72   79.9     4     37.2     7.2    999.0   0.00  
 244    8:40  404.0    72   78.3     6     57.2     9.6    999.0   0.00  
 244    8:50  365.0    72   78.2     4    336.8     8.4    999.0   0.00  
 244    9:00  192.0    71   78.7     4    297.8    11.3    999.0   0.00  
 244    9:10  182.0    71   79.6     3    242.9     7.8    999.0   0.00  
 244    9:20  213.0    71   79.4     4    159.3     6.6    999.0   0.00  
 244    9:30  223.0    71   79.8     4    237.0     8.4    999.0   0.00  
 244    9:40  325.0    71   80.0     4    258.0     9.6    999.0   0.00  
 244    9:50  373.0    72   77.8     3    244.3     7.8    999.0   0.00  
 244   10:00  378.0    72   76.9     4     81.6     7.2    999.0   0.00  
 244   10:10  407.0    72   76.1     4    101.6     8.4    999.0   0.00  
 244   10:20  540.0    74   72.4     4     85.2     7.8    999.0   0.00  

Return to Avalon School graphs page.


Western Regional Climate Center,wrcc@dri.edu